WXM80 ListenWXM80 Stop

You find our weather info also at:

UK Metoffice

WeatherCloud

Weather Underground

Northeastern Weather Network

AWEKAS

Citizen Weather Observer Program (CWOP)

HAMweather, WeatherForYou, PWS Weather


Weather Underground History page Text

Daily Summary for August 26, 2017 Units:  Both    English   Metric
« Previous Day
Next Day »
Daily Weekly Monthly Yearly Custom
  High: Low: Average:
Temperature: 80.5 °F /  26.9 °C 59.5 °F /  15.3 °C 69.6 °F /  20.9 °C
Dew Point: 60.6 °F /  15.9 °C 50.6 °F /  10.3 °C 56.2 °F /  13.4 °C
Humidity: 84 % 39 % 64 %
Wind Speed: 7.8 mph /  12.6 km/h - 1.6 mph /  2.6 km/h
Wind Gust: 12.0 mph /  19.3 km/h - -
Wind:- - ESE
Pressure: 30.23 in /  1023.6 hPa 30.14 in /  1020.5 hPa -
Precipitation: 0.00 in /  0 mm    
Historical Graphs
 
 
Tabular Data for August 26, 2017
Time Temperature Dew Point Pressure Wind Wind Speed Wind Gust Humidity Rainfall Rate (Hourly)
00:04 68.5 °F /  20.3 °C 60.3 °F /  15.7 °C 30.14 in /  1020.5 hPa NNE 3.1 mph /  5 km/h 4.6 mph /  7.4 km/h 75 % 0.00 in /  0 mm
00:09 68.5 °F /  20.3 °C 60.3 °F /  15.7 °C 30.14 in /  1020.5 hPa North 3.0 mph /  4.8 km/h 5.8 mph /  9.3 km/h 75 % 0.00 in /  0 mm
00:14 68.4 °F /  20.2 °C 59.0 °F /  15 °C 30.14 in /  1020.5 hPa NNW 3.2 mph /  5.1 km/h 6.9 mph /  11.1 km/h 72 % 0.00 in /  0 mm
00:19 68.4 °F /  20.2 °C 57.8 °F /  14.3 °C 30.14 in /  1020.5 hPa North 4.0 mph /  6.4 km/h 8.1 mph /  13 km/h 69 % 0.00 in /  0 mm
00:24 68.3 °F /  20.2 °C 57.3 °F /  14.1 °C 30.14 in /  1020.5 hPa NNE 4.9 mph /  7.9 km/h 10.4 mph /  16.7 km/h 68 % 0.00 in /  0 mm
00:29 68.3 °F /  20.2 °C 57.3 °F /  14.1 °C 30.14 in /  1020.5 hPa North 4.3 mph /  6.9 km/h 6.0 mph /  9.7 km/h 68 % 0.00 in /  0 mm
00:34 68.3 °F /  20.2 °C 57.3 °F /  14.1 °C 30.15 in /  1020.9 hPa NNE 6.4 mph /  10.3 km/h 9.2 mph /  14.8 km/h 68 % 0.00 in /  0 mm
00:39 68.3 °F /  20.2 °C 57.7 °F /  14.3 °C 30.15 in /  1020.9 hPa NE 5.3 mph /  8.5 km/h 8.1 mph /  13 km/h 69 % 0.00 in /  0 mm
00:44 68.3 °F /  20.2 °C 57.7 °F /  14.3 °C 30.14 in /  1020.5 hPa NE 3.2 mph /  5.1 km/h 7.0 mph /  11.3 km/h 69 % 0.00 in /  0 mm
00:49 68.3 °F /  20.2 °C 57.3 °F /  14.1 °C 30.14 in /  1020.5 hPa North 3.1 mph /  5 km/h 8.1 mph /  13 km/h 68 % 0.00 in /  0 mm
00:54 68.3 °F /  20.2 °C 57.3 °F /  14.1 °C 30.14 in /  1020.5 hPa NNE 4.9 mph /  7.9 km/h 9.2 mph /  14.8 km/h 68 % 0.00 in /  0 mm
00:59 68.2 °F /  20.1 °C 57.6 °F /  14.2 °C 30.14 in /  1020.5 hPa North 5.9 mph /  9.5 km/h 9.0 mph /  14.5 km/h 69 % 0.00 in /  0 mm
01:04 68.2 °F /  20.1 °C 57.6 °F /  14.2 °C 30.14 in /  1020.5 hPa NNE 6.6 mph /  10.6 km/h 9.2 mph /  14.8 km/h 69 % 0.00 in /  0 mm
01:09 68.1 °F /  20.1 °C 57.5 °F /  14.2 °C 30.14 in /  1020.5 hPa NNE 4.1 mph /  6.6 km/h 6.9 mph /  11.1 km/h 69 % 0.00 in /  0 mm
01:14 68.0 °F /  20 °C 57.4 °F /  14.1 °C 30.14 in /  1020.5 hPa NNE 4.4 mph /  7.1 km/h 6.0 mph /  9.7 km/h 69 % 0.00 in /  0 mm
01:19 67.9 °F /  19.9 °C 56.9 °F /  13.8 °C 30.14 in /  1020.5 hPa NE 5.3 mph /  8.5 km/h 9.2 mph /  14.8 km/h 68 % 0.00 in /  0 mm
01:24 67.9 °F /  19.9 °C 56.9 °F /  13.8 °C 30.14 in /  1020.5 hPa NNE 4.4 mph /  7.1 km/h 8.1 mph /  13 km/h 68 % 0.00 in /  0 mm
01:29 67.8 °F /  19.9 °C 56.9 °F /  13.8 °C 30.14 in /  1020.5 hPa NNE 2.9 mph /  4.7 km/h 11.5 mph /  18.5 km/h 68 % 0.00 in /  0 mm
01:34 67.7 °F /  19.8 °C 56.3 °F /  13.5 °C 30.14 in /  1020.5 hPa North 5.8 mph /  9.3 km/h 8.1 mph /  13 km/h 67 % 0.00 in /  0 mm
01:39 67.7 °F /  19.8 °C 56.3 °F /  13.5 °C 30.14 in /  1020.5 hPa North 6.2 mph /  10 km/h 12.0 mph /  19.3 km/h 67 % 0.00 in /  0 mm
01:44 67.7 °F /  19.8 °C 56.3 °F /  13.5 °C 30.14 in /  1020.5 hPa North 4.9 mph /  7.9 km/h 8.1 mph /  13 km/h 67 % 0.00 in /  0 mm
01:46 67.6 °F /  19.8 °C 56.3 °F /  13.5 °C 30.14 in /  1020.5 hPa North 3.0 mph /  4.8 km/h 12.0 mph /  19.3 km/h 67 % 0.00 in /  0 mm
01:51 67.6 °F /  19.8 °C 56.7 °F /  13.7 °C 30.14 in /  1020.5 hPa NNE 7.0 mph /  11.3 km/h 12.0 mph /  19.3 km/h 68 % 0.00 in /  0 mm
01:54 67.6 °F /  19.8 °C 56.2 °F /  13.4 °C 30.14 in /  1020.5 hPa NNE 7.7 mph /  12.4 km/h 11.0 mph /  17.7 km/h 67 % 0.00 in /  0 mm
02:00 67.5 °F /  19.7 °C 56.2 °F /  13.4 °C 30.14 in /  1020.5 hPa NNW 7.8 mph /  12.6 km/h 9.2 mph /  14.8 km/h 67 % 0.00 in /  0 mm
02:05 67.4 °F /  19.7 °C 55.6 °F /  13.1 °C 30.14 in /  1020.5 hPa North 6.9 mph /  11.1 km/h 11.5 mph /  18.5 km/h 66 % 0.00 in /  0 mm
02:10 67.4 °F /  19.7 °C 55.6 °F /  13.1 °C 30.15 in /  1020.9 hPa North 6.4 mph /  10.3 km/h 11.5 mph /  18.5 km/h 66 % 0.00 in /  0 mm
02:15 67.3 °F /  19.6 °C 56.4 °F /  13.6 °C 30.15 in /  1020.9 hPa NE 5.4 mph /  8.7 km/h 9.2 mph /  14.8 km/h 68 % 0.00 in /  0 mm
02:20 67.2 °F /  19.6 °C 56.7 °F /  13.7 °C 30.15 in /  1020.9 hPa NNE 6.6 mph /  10.6 km/h 11.5 mph /  18.5 km/h 69 % 0.00 in /  0 mm
02:25 67.1 °F /  19.5 °C 56.6 °F /  13.7 °C 30.15 in /  1020.9 hPa North 3.2 mph /  5.1 km/h 8.1 mph /  13 km/h 69 % 0.00 in /  0 mm
02:30 67.1 °F /  19.5 °C 56.6 °F /  13.7 °C 30.15 in /  1020.9 hPa North 3.9 mph /  6.3 km/h 9.2 mph /  14.8 km/h 69 % 0.00 in /  0 mm
02:35 67.0 °F /  19.4 °C 56.9 °F /  13.8 °C 30.15 in /  1020.9 hPa NE 3.5 mph /  5.6 km/h 8.1 mph /  13 km/h 70 % 0.00 in /  0 mm
02:40 66.9 °F /  19.4 °C 57.2 °F /  14 °C 30.15 in /  1020.9 hPa North 3.6 mph /  5.8 km/h 8.1 mph /  13 km/h 71 % 0.00 in /  0 mm
02:45 66.8 °F /  19.3 °C 57.1 °F /  13.9 °C 30.15 in /  1020.9 hPa NNE 5.9 mph /  9.5 km/h 9.2 mph /  14.8 km/h 71 % 0.00 in /  0 mm
02:50 66.8 °F /  19.3 °C 57.1 °F /  13.9 °C 30.15 in /  1020.9 hPa North 2.0 mph /  3.2 km/h 3.5 mph /  5.6 km/h 71 % 0.00 in /  0 mm
02:55 66.7 °F /  19.3 °C 57.0 °F /  13.9 °C 30.15 in /  1020.9 hPa NNE 3.2 mph /  5.1 km/h 5.8 mph /  9.3 km/h 71 % 0.00 in /  0 mm
03:00 66.6 °F /  19.2 °C 57.3 °F /  14.1 °C 30.15 in /  1020.9 hPa NNE 4.6 mph /  7.4 km/h 6.9 mph /  11.1 km/h 72 % 0.00 in /  0 mm
03:05 66.5 °F /  19.2 °C 57.2 °F /  14 °C 30.15 in /  1020.9 hPa ENE 0.8 mph /  1.3 km/h 4.6 mph /  7.4 km/h 72 % 0.00 in /  0 mm
03:10 66.4 °F /  19.1 °C 56.7 °F /  13.7 °C 30.16 in /  1021.2 hPa NE 1.7 mph /  2.7 km/h 3.5 mph /  5.6 km/h 71 % 0.00 in /  0 mm
03:15 66.3 °F /  19.1 °C 56.6 °F /  13.7 °C 30.16 in /  1021.2 hPa North 2.3 mph /  3.7 km/h 5.0 mph /  8 km/h 71 % 0.00 in /  0 mm
03:20 66.2 °F /  19 °C 56.5 °F /  13.6 °C 30.16 in /  1021.2 hPa NNE 1.9 mph /  3.1 km/h 3.5 mph /  5.6 km/h 71 % 0.00 in /  0 mm
03:25 66.1 °F /  18.9 °C 56.8 °F /  13.8 °C 30.16 in /  1021.2 hPa NNE 2.2 mph /  3.5 km/h 6.9 mph /  11.1 km/h 72 % 0.00 in /  0 mm
03:30 65.9 °F /  18.8 °C 56.6 °F /  13.7 °C 30.16 in /  1021.2 hPa NE 3.3 mph /  5.3 km/h 6.9 mph /  11.1 km/h 72 % 0.00 in /  0 mm
03:35 65.8 °F /  18.8 °C 56.5 °F /  13.6 °C 30.16 in /  1021.2 hPa NNE 3.3 mph /  5.3 km/h 4.0 mph /  6.4 km/h 72 % 0.00 in /  0 mm
03:40 65.7 °F /  18.7 °C 56.4 °F /  13.6 °C 30.16 in /  1021.2 hPa North 0.3 mph /  0.5 km/h 4.6 mph /  7.4 km/h 72 % 0.00 in /  0 mm
03:45 65.6 °F /  18.7 °C 56.7 °F /  13.7 °C 30.16 in /  1021.2 hPa North 2.4 mph /  3.9 km/h 6.9 mph /  11.1 km/h 73 % 0.00 in /  0 mm
03:50 65.5 °F /  18.6 °C 56.6 °F /  13.7 °C 30.16 in /  1021.2 hPa NNE 0.5 mph /  0.8 km/h 3.5 mph /  5.6 km/h 73 % 0.00 in /  0 mm
03:55 65.4 °F /  18.6 °C 56.1 °F /  13.4 °C 30.16 in /  1021.2 hPa NNE 3.0 mph /  4.8 km/h 5.0 mph /  8 km/h 72 % 0.00 in /  0 mm
04:00 65.3 °F /  18.5 °C 56.4 °F /  13.6 °C 30.16 in /  1021.2 hPa NNE 3.9 mph /  6.3 km/h 5.8 mph /  9.3 km/h 73 % 0.00 in /  0 mm
04:05 65.2 °F /  18.4 °C 56.3 °F /  13.5 °C 30.16 in /  1021.2 hPa North 0.7 mph /  1.1 km/h 3.5 mph /  5.6 km/h 73 % 0.00 in /  0 mm
04:10 65.1 °F /  18.4 °C 56.6 °F /  13.7 °C 30.16 in /  1021.2 hPa NNE 0.1 mph /  0.2 km/h 1.2 mph /  1.9 km/h 74 % 0.00 in /  0 mm
04:15 65.0 °F /  18.3 °C 56.5 °F /  13.6 °C 30.17 in /  1021.6 hPa NNW 3.2 mph /  5.1 km/h 5.8 mph /  9.3 km/h 74 % 0.00 in /  0 mm
04:20 64.9 °F /  18.3 °C 56.4 °F /  13.6 °C 30.17 in /  1021.6 hPa NNE 2.9 mph /  4.7 km/h 5.0 mph /  8 km/h 74 % 0.00 in /  0 mm
04:25 64.8 °F /  18.2 °C 56.3 °F /  13.5 °C 30.17 in /  1021.6 hPa NE 3.8 mph /  6.1 km/h 6.0 mph /  9.7 km/h 74 % 0.00 in /  0 mm
04:30 64.6 °F /  18.1 °C 56.1 °F /  13.4 °C 30.17 in /  1021.6 hPa North 2.7 mph /  4.3 km/h 5.0 mph /  8 km/h 74 % 0.00 in /  0 mm
04:35 64.5 °F /  18.1 °C 56.4 °F /  13.6 °C 30.17 in /  1021.6 hPa NNW 2.5 mph /  4 km/h 5.8 mph /  9.3 km/h 75 % 0.00 in /  0 mm
04:40 64.4 °F /  18 °C 56.3 °F /  13.5 °C 30.17 in /  1021.6 hPa NW 1.8 mph /  2.9 km/h 4.6 mph /  7.4 km/h 75 % 0.00 in /  0 mm
04:45 64.4 °F /  18 °C 56.3 °F /  13.5 °C 30.17 in /  1021.6 hPa NNE 0.9 mph /  1.4 km/h 3.5 mph /  5.6 km/h 75 % 0.00 in /  0 mm
04:50 64.3 °F /  17.9 °C 55.8 °F /  13.2 °C 30.17 in /  1021.6 hPa North 0.2 mph /  0.3 km/h 1.2 mph /  1.9 km/h 74 % 0.00 in /  0 mm
04:55 64.2 °F /  17.9 °C 56.1 °F /  13.4 °C 30.17 in /  1021.6 hPa NNE 0.1 mph /  0.2 km/h 2.3 mph /  3.7 km/h 75 % 0.00 in /  0 mm
05:00 64.1 °F /  17.8 °C 56.0 °F /  13.3 °C 30.17 in /  1021.6 hPa NW 2.6 mph /  4.2 km/h 4.6 mph /  7.4 km/h 75 % 0.00 in /  0 mm
05:05 64.0 °F /  17.8 °C 55.9 °F /  13.3 °C 30.17 in /  1021.6 hPa North 2.1 mph /  3.4 km/h 3.5 mph /  5.6 km/h 75 % 0.00 in /  0 mm
05:10 63.9 °F /  17.7 °C 56.2 °F /  13.4 °C 30.18 in /  1021.9 hPa NNE 2.2 mph /  3.5 km/h 4.6 mph /  7.4 km/h 76 % 0.00 in /  0 mm
05:16 63.8 °F /  17.7 °C 56.4 °F /  13.6 °C 30.18 in /  1021.9 hPa NNE 2.0 mph /  3.2 km/h 6.0 mph /  9.7 km/h 77 % 0.00 in /  0 mm
05:21 63.7 °F /  17.6 °C 56.4 °F /  13.6 °C 30.18 in /  1021.9 hPa North 2.0 mph /  3.2 km/h 6.0 mph /  9.7 km/h 77 % 0.00 in /  0 mm
05:26 63.6 °F /  17.6 °C 56.3 °F /  13.5 °C 30.18 in /  1021.9 hPa North 1.0 mph /  1.6 km/h 6.0 mph /  9.7 km/h 77 % 0.00 in /  0 mm
05:31 63.5 °F /  17.5 °C 55.8 °F /  13.2 °C 30.18 in /  1021.9 hPa NNE 3.0 mph /  4.8 km/h 6.0 mph /  9.7 km/h 76 % 0.00 in /  0 mm
05:36 63.5 °F /  17.5 °C 55.8 °F /  13.2 °C 30.18 in /  1021.9 hPa North 2.0 mph /  3.2 km/h 5.0 mph /  8 km/h 76 % 0.00 in /  0 mm
05:41 63.4 °F /  17.4 °C 55.7 °F /  13.2 °C 30.18 in /  1021.9 hPa Calm   5.0 mph /  8 km/h 76 % 0.00 in /  0 mm
05:46 63.4 °F /  17.4 °C 56.1 °F /  13.4 °C 30.18 in /  1021.9 hPa North 2.0 mph /  3.2 km/h 5.0 mph /  8 km/h 77 % 0.00 in /  0 mm
05:51 63.3 °F /  17.4 °C 56.0 °F /  13.3 °C 30.19 in /  1022.2 hPa Calm   4.0 mph /  6.4 km/h 77 % 0.00 in /  0 mm
05:56 63.2 °F /  17.3 °C 55.9 °F /  13.3 °C 30.19 in /  1022.2 hPa Calm   4.0 mph /  6.4 km/h 77 % 0.00 in /  0 mm
06:01 63.2 °F /  17.3 °C 55.9 °F /  13.3 °C 30.19 in /  1022.2 hPa North 0.7 mph /  1.1 km/h 2.3 mph /  3.7 km/h 77 % 0.00 in /  0 mm
06:06 63.1 °F /  17.3 °C 55.8 °F /  13.2 °C 30.19 in /  1022.2 hPa NNE 1.0 mph /  1.6 km/h 4.0 mph /  6.4 km/h 77 % 0.00 in /  0 mm
06:11 63.0 °F /  17.2 °C 55.7 °F /  13.2 °C 30.19 in /  1022.2 hPa Calm     77 % 0.00 in /  0 mm
06:12 63.0 °F /  17.2 °C 55.7 °F /  13.2 °C 30.19 in /  1022.2 hPa Calm     77 % 0.00 in /  0 mm
06:18 62.9 °F /  17.2 °C 55.9 °F /  13.3 °C 30.19 in /  1022.2 hPa Calm     78 % 0.00 in /  0 mm
06:23 62.9 °F /  17.2 °C 55.9 °F /  13.3 °C 30.20 in /  1022.6 hPa Calm     78 % 0.00 in /  0 mm
06:28 62.8 °F /  17.1 °C 55.8 °F /  13.2 °C 30.20 in /  1022.6 hPa North 0.1 mph /  0.2 km/h 2.3 mph /  3.7 km/h 78 % 0.00 in /  0 mm
06:33 62.7 °F /  17.1 °C 56.1 °F /  13.4 °C 30.20 in /  1022.6 hPa North 0.7 mph /  1.1 km/h 3.5 mph /  5.6 km/h 79 % 0.00 in /  0 mm
06:38 62.5 °F /  16.9 °C 55.9 °F /  13.3 °C 30.20 in /  1022.6 hPa North 0.3 mph /  0.5 km/h 3.5 mph /  5.6 km/h 79 % 0.00 in /  0 mm
06:43 62.5 °F /  16.9 °C 55.9 °F /  13.3 °C 30.21 in /  1022.9 hPa Calm     79 % 0.00 in /  0 mm
06:48 62.4 °F /  16.9 °C 55.8 °F /  13.2 °C 30.20 in /  1022.6 hPa Calm   1.0 mph /  1.6 km/h 79 % 0.00 in /  0 mm
06:53 62.4 °F /  16.9 °C 56.1 °F /  13.4 °C 30.20 in /  1022.6 hPa Calm   1.2 mph /  1.9 km/h 80 % 0.00 in /  0 mm
06:58 62.3 °F /  16.8 °C 56.4 °F /  13.6 °C 30.20 in /  1022.6 hPa NNE 2.7 mph /  4.3 km/h 3.5 mph /  5.6 km/h 81 % 0.00 in /  0 mm
07:03 62.3 °F /  16.8 °C 56.4 °F /  13.6 °C 30.21 in /  1022.9 hPa NNE 1.4 mph /  2.3 km/h 3.5 mph /  5.6 km/h 81 % 0.00 in /  0 mm
07:08 62.3 °F /  16.8 °C 56.4 °F /  13.6 °C 30.21 in /  1022.9 hPa North 2.6 mph /  4.2 km/h 4.6 mph /  7.4 km/h 81 % 0.00 in /  0 mm
07:13 62.4 °F /  16.9 °C 56.5 °F /  13.6 °C 30.21 in /  1022.9 hPa NNE 2.8 mph /  4.5 km/h 4.6 mph /  7.4 km/h 81 % 0.00 in /  0 mm
07:18 62.4 °F /  16.9 °C 56.5 °F /  13.6 °C 30.21 in /  1022.9 hPa North 3.5 mph /  5.6 km/h 4.6 mph /  7.4 km/h 81 % 0.00 in /  0 mm
07:23 62.5 °F /  16.9 °C 56.9 °F /  13.8 °C 30.21 in /  1022.9 hPa North 0.8 mph /  1.3 km/h 4.0 mph /  6.4 km/h 82 % 0.00 in /  0 mm
07:28 62.6 °F /  17 °C 57.0 °F /  13.9 °C 30.21 in /  1022.9 hPa North 1.7 mph /  2.7 km/h 3.5 mph /  5.6 km/h 82 % 0.00 in /  0 mm
07:33 62.7 °F /  17.1 °C 57.1 °F /  13.9 °C 30.21 in /  1022.9 hPa North 1.9 mph /  3.1 km/h 4.6 mph /  7.4 km/h 82 % 0.00 in /  0 mm
07:36 62.8 °F /  17.1 °C 57.2 °F /  14 °C 30.21 in /  1022.9 hPa NNE 1.5 mph /  2.4 km/h 3.5 mph /  5.6 km/h 82 % 0.00 in /  0 mm
07:41 62.9 °F /  17.2 °C 57.3 °F /  14.1 °C 30.21 in /  1022.9 hPa North 2.0 mph /  3.2 km/h 4.0 mph /  6.4 km/h 82 % 0.00 in /  0 mm
07:46 63.1 °F /  17.3 °C 57.5 °F /  14.2 °C 30.21 in /  1022.9 hPa Calm   4.0 mph /  6.4 km/h 82 % 0.00 in /  0 mm
07:51 63.2 °F /  17.3 °C 57.3 °F /  14.1 °C 30.21 in /  1022.9 hPa NNE 1.0 mph /  1.6 km/h 3.0 mph /  4.8 km/h 81 % 0.00 in /  0 mm
07:56 63.2 °F /  17.3 °C 57.3 °F /  14.1 °C 30.21 in /  1022.9 hPa Calm   4.0 mph /  6.4 km/h 81 % 0.00 in /  0 mm
08:01 63.4 °F /  17.4 °C 57.1 °F /  13.9 °C 30.21 in /  1022.9 hPa NNE 1.4 mph /  2.3 km/h 4.0 mph /  6.4 km/h 80 % 0.00 in /  0 mm
08:06 63.5 °F /  17.5 °C 57.2 °F /  14 °C 30.21 in /  1022.9 hPa North 1.2 mph /  1.9 km/h 3.5 mph /  5.6 km/h 80 % 0.00 in /  0 mm
08:11 63.6 °F /  17.6 °C 57.3 °F /  14.1 °C 30.21 in /  1022.9 hPa NNE 0.7 mph /  1.1 km/h 4.6 mph /  7.4 km/h 80 % 0.00 in /  0 mm
08:16 63.8 °F /  17.7 °C 57.5 °F /  14.2 °C 30.22 in /  1023.2 hPa North 2.1 mph /  3.4 km/h 5.0 mph /  8 km/h 80 % 0.00 in /  0 mm
08:21 63.9 °F /  17.7 °C 57.3 °F /  14.1 °C 30.22 in /  1023.2 hPa North 2.7 mph /  4.3 km/h 4.6 mph /  7.4 km/h 79 % 0.00 in /  0 mm
08:26 64.0 °F /  17.8 °C 57.4 °F /  14.1 °C 30.21 in /  1022.9 hPa North 1.5 mph /  2.4 km/h 3.5 mph /  5.6 km/h 79 % 0.00 in /  0 mm
08:31 64.1 °F /  17.8 °C 57.5 °F /  14.2 °C 30.21 in /  1022.9 hPa NNE 2.9 mph /  4.7 km/h 2.9 mph /  4.7 km/h 79 % 0.00 in /  0 mm
08:36 64.2 °F /  17.9 °C 57.5 °F /  14.2 °C 30.21 in /  1022.9 hPa NNE 1.9 mph /  3.1 km/h 4.0 mph /  6.4 km/h 79 % 0.00 in /  0 mm
08:41 64.3 °F /  17.9 °C 57.6 °F /  14.2 °C 30.21 in /  1022.9 hPa North 0.2 mph /  0.3 km/h 3.5 mph /  5.6 km/h 79 % 0.00 in /  0 mm
08:46 64.4 °F /  18 °C 57.4 °F /  14.1 °C 30.21 in /  1022.9 hPa NE 2.5 mph /  4 km/h 6.9 mph /  11.1 km/h 78 % 0.00 in /  0 mm
08:51 64.6 °F /  18.1 °C 56.9 °F /  13.8 °C 30.21 in /  1022.9 hPa ENE 1.4 mph /  2.3 km/h 4.0 mph /  6.4 km/h 76 % 0.00 in /  0 mm
08:56 64.9 °F /  18.3 °C 57.5 °F /  14.2 °C 30.21 in /  1022.9 hPa NNE 1.2 mph /  1.9 km/h 3.5 mph /  5.6 km/h 77 % 0.00 in /  0 mm
09:01 65.0 °F /  18.3 °C 57.2 °F /  14 °C 30.21 in /  1022.9 hPa NE 3.0 mph /  4.8 km/h 7.0 mph /  11.3 km/h 76 % 0.00 in /  0 mm
09:06 65.2 °F /  18.4 °C 57.1 °F /  13.9 °C 30.21 in /  1022.9 hPa NE 2.4 mph /  3.9 km/h 4.6 mph /  7.4 km/h 75 % 0.00 in /  0 mm
09:11 65.4 °F /  18.6 °C 57.6 °F /  14.2 °C 30.21 in /  1022.9 hPa NNE 2.0 mph /  3.2 km/h 5.0 mph /  8 km/h 76 % 0.00 in /  0 mm
09:16 65.6 °F /  18.7 °C 57.8 °F /  14.3 °C 30.21 in /  1022.9 hPa North 2.5 mph /  4 km/h 3.5 mph /  5.6 km/h 76 % 0.00 in /  0 mm
09:21 65.7 °F /  18.7 °C 57.6 °F /  14.2 °C 30.22 in /  1023.2 hPa NE 4.3 mph /  6.9 km/h 6.9 mph /  11.1 km/h 75 % 0.00 in /  0 mm
09:26 65.9 °F /  18.8 °C 57.7 °F /  14.3 °C 30.22 in /  1023.2 hPa NNE 1.4 mph /  2.3 km/h 3.5 mph /  5.6 km/h 75 % 0.00 in /  0 mm
09:31 66.2 °F /  19 °C 57.3 °F /  14.1 °C 30.22 in /  1023.2 hPa North 3.8 mph /  6.1 km/h 5.0 mph /  8 km/h 73 % 0.00 in /  0 mm
09:36 66.4 °F /  19.1 °C 57.1 °F /  13.9 °C 30.22 in /  1023.2 hPa NE 3.4 mph /  5.5 km/h 5.0 mph /  8 km/h 72 % 0.00 in /  0 mm
09:41 66.7 °F /  19.3 °C 57.4 °F /  14.1 °C 30.22 in /  1023.2 hPa NE 2.0 mph /  3.2 km/h 4.6 mph /  7.4 km/h 72 % 0.00 in /  0 mm
09:46 67.1 °F /  19.5 °C 57.4 °F /  14.1 °C 30.22 in /  1023.2 hPa NNE 1.0 mph /  1.6 km/h 3.5 mph /  5.6 km/h 71 % 0.00 in /  0 mm
09:51 67.7 °F /  19.8 °C 57.6 °F /  14.2 °C 30.22 in /  1023.2 hPa NNE 1.4 mph /  2.3 km/h 3.5 mph /  5.6 km/h 70 % 0.00 in /  0 mm
09:56 68.4 °F /  20.2 °C 57.8 °F /  14.3 °C 30.22 in /  1023.2 hPa NNE 0.9 mph /  1.4 km/h 3.5 mph /  5.6 km/h 69 % 0.00 in /  0 mm
10:01 69.2 °F /  20.7 °C 58.6 °F /  14.8 °C 30.22 in /  1023.2 hPa NNE 1.4 mph /  2.3 km/h 2.3 mph /  3.7 km/h 69 % 0.00 in /  0 mm
10:06 69.7 °F /  20.9 °C 57.8 °F /  14.3 °C 30.23 in /  1023.6 hPa ENE 2.0 mph /  3.2 km/h 3.5 mph /  5.6 km/h 66 % 0.00 in /  0 mm
10:11 69.9 °F /  21.1 °C 56.7 °F /  13.7 °C 30.23 in /  1023.6 hPa NNE 2.7 mph /  4.3 km/h 4.6 mph /  7.4 km/h 63 % 0.00 in /  0 mm
10:16 70.0 °F /  21.1 °C 56.8 °F /  13.8 °C 30.22 in /  1023.2 hPa North 3.5 mph /  5.6 km/h 6.9 mph /  11.1 km/h 63 % 0.00 in /  0 mm
10:21 70.0 °F /  21.1 °C 58.1 °F /  14.5 °C 30.23 in /  1023.6 hPa North 4.1 mph /  6.6 km/h 4.6 mph /  7.4 km/h 66 % 0.00 in /  0 mm
10:26 69.9 °F /  21.1 °C 57.2 °F /  14 °C 30.23 in /  1023.6 hPa NE 3.0 mph /  4.8 km/h 4.6 mph /  7.4 km/h 64 % 0.00 in /  0 mm
10:31 69.8 °F /  21 °C 57.1 °F /  13.9 °C 30.22 in /  1023.2 hPa NE 2.3 mph /  3.7 km/h 4.0 mph /  6.4 km/h 64 % 0.00 in /  0 mm
10:36 69.9 °F /  21.1 °C 57.6 °F /  14.2 °C 30.23 in /  1023.6 hPa NE 2.2 mph /  3.5 km/h 5.8 mph /  9.3 km/h 65 % 0.00 in /  0 mm
10:41 70.1 °F /  21.2 °C 56.9 °F /  13.8 °C 30.23 in /  1023.6 hPa NNE 6.1 mph /  9.8 km/h 8.1 mph /  13 km/h 63 % 0.00 in /  0 mm
10:46 70.5 °F /  21.4 °C 57.7 °F /  14.3 °C 30.23 in /  1023.6 hPa North 3.1 mph /  5 km/h 6.0 mph /  9.7 km/h 64 % 0.00 in /  0 mm
10:52 71.0 °F /  21.7 °C 57.8 °F /  14.3 °C 30.23 in /  1023.6 hPa North 4.3 mph /  6.9 km/h 5.8 mph /  9.3 km/h 63 % 0.00 in /  0 mm
10:57 71.5 °F /  21.9 °C 57.8 °F /  14.3 °C 30.23 in /  1023.6 hPa ENE 1.3 mph /  2.1 km/h 4.6 mph /  7.4 km/h 62 % 0.00 in /  0 mm
11:02 72.3 °F /  22.4 °C 57.2 °F /  14 °C 30.23 in /  1023.6 hPa North 3.4 mph /  5.5 km/h 6.9 mph /  11.1 km/h 59 % 0.00 in /  0 mm
11:07 73.1 °F /  22.8 °C 59.3 °F /  15.2 °C 30.23 in /  1023.6 hPa NE 1.9 mph /  3.1 km/h 3.5 mph /  5.6 km/h 62 % 0.00 in /  0 mm
11:12 74.1 °F /  23.4 °C 59.3 °F /  15.2 °C 30.23 in /  1023.6 hPa ENE 4.8 mph /  7.7 km/h 6.9 mph /  11.1 km/h 60 % 0.00 in /  0 mm
11:17 74.6 °F /  23.7 °C 57.4 °F /  14.1 °C 30.23 in /  1023.6 hPa ENE 1.8 mph /  2.9 km/h 6.9 mph /  11.1 km/h 55 % 0.00 in /  0 mm
11:22 75.5 °F /  24.2 °C 60.6 °F /  15.9 °C 30.23 in /  1023.6 hPa NNW 2.4 mph /  3.9 km/h 4.0 mph /  6.4 km/h 60 % 0.00 in /  0 mm
11:27 76.2 °F /  24.6 °C 59.4 °F /  15.2 °C 30.22 in /  1023.2 hPa North 3.3 mph /  5.3 km/h 4.0 mph /  6.4 km/h 56 % 0.00 in /  0 mm
11:32 76.6 °F /  24.8 °C 59.2 °F /  15.1 °C 30.22 in /  1023.2 hPa ENE 2.8 mph /  4.5 km/h 4.6 mph /  7.4 km/h 55 % 0.00 in /  0 mm
11:37 76.7 °F /  24.8 °C 58.8 °F /  14.9 °C 30.22 in /  1023.2 hPa NE 0.8 mph /  1.3 km/h 3.5 mph /  5.6 km/h 54 % 0.00 in /  0 mm
11:42 77.2 °F /  25.1 °C 58.2 °F /  14.6 °C 30.22 in /  1023.2 hPa ENE 1.9 mph /  3.1 km/h 3.5 mph /  5.6 km/h 52 % 0.00 in /  0 mm
11:47 77.7 °F /  25.4 °C 59.2 °F /  15.1 °C 30.22 in /  1023.2 hPa NNE 1.4 mph /  2.3 km/h 4.0 mph /  6.4 km/h 53 % 0.00 in /  0 mm
11:52 78.1 °F /  25.6 °C 59.6 °F /  15.3 °C 30.22 in /  1023.2 hPa East 2.8 mph /  4.5 km/h 5.0 mph /  8 km/h 53 % 0.00 in /  0 mm
11:57 78.4 °F /  25.8 °C 59.9 °F /  15.5 °C 30.22 in /  1023.2 hPa NE 1.5 mph /  2.4 km/h 5.0 mph /  8 km/h 53 % 0.00 in /  0 mm
12:02 78.3 °F /  25.7 °C 57.0 °F /  13.9 °C 30.21 in /  1022.9 hPa NNE 3.6 mph /  5.8 km/h 5.8 mph /  9.3 km/h 48 % 0.00 in /  0 mm
12:07 78.5 °F /  25.8 °C 59.9 °F /  15.5 °C 30.21 in /  1022.9 hPa NNE 0.9 mph /  1.4 km/h 3.5 mph /  5.6 km/h 53 % 0.00 in /  0 mm
12:12 78.6 °F /  25.9 °C 57.8 °F /  14.3 °C 30.21 in /  1022.9 hPa ENE 2.4 mph /  3.9 km/h 3.5 mph /  5.6 km/h 49 % 0.00 in /  0 mm
12:17 78.5 °F /  25.8 °C 58.9 °F /  14.9 °C 30.21 in /  1022.9 hPa North 2.6 mph /  4.2 km/h 6.9 mph /  11.1 km/h 51 % 0.00 in /  0 mm
12:22 78.6 °F /  25.9 °C 56.7 °F /  13.7 °C 30.21 in /  1022.9 hPa ENE 1.1 mph /  1.8 km/h 3.5 mph /  5.6 km/h 47 % 0.00 in /  0 mm
12:28 78.6 °F /  25.9 °C 58.4 °F /  14.7 °C 30.20 in /  1022.6 hPa NNW 2.5 mph /  4 km/h 4.6 mph /  7.4 km/h 50 % 0.00 in /  0 mm
12:33 78.6 °F /  25.9 °C 59.0 °F /  15 °C 30.20 in /  1022.6 hPa North 1.9 mph /  3.1 km/h 4.6 mph /  7.4 km/h 51 % 0.00 in /  0 mm
12:38 78.5 °F /  25.8 °C 57.2 °F /  14 °C 30.20 in /  1022.6 hPa North 1.6 mph /  2.6 km/h 4.6 mph /  7.4 km/h 48 % 0.00 in /  0 mm
12:43 78.6 °F /  25.9 °C 57.3 °F /  14.1 °C 30.20 in /  1022.6 hPa North 2.4 mph /  3.9 km/h 5.8 mph /  9.3 km/h 48 % 0.00 in /  0 mm
12:48 78.6 °F /  25.9 °C 57.3 °F /  14.1 °C 30.21 in /  1022.9 hPa NNE 1.6 mph /  2.6 km/h 3.5 mph /  5.6 km/h 48 % 0.00 in /  0 mm
12:53 78.6 °F /  25.9 °C 59.5 °F /  15.3 °C 30.20 in /  1022.6 hPa North 1.6 mph /  2.6 km/h 4.0 mph /  6.4 km/h 52 % 0.00 in /  0 mm
12:58 78.8 °F /  26 °C 56.9 °F /  13.8 °C 30.20 in /  1022.6 hPa North 1.5 mph /  2.4 km/h 4.0 mph /  6.4 km/h 47 % 0.00 in /  0 mm
13:03 78.7 °F /  25.9 °C 57.4 °F /  14.1 °C 30.20 in /  1022.6 hPa NNE 0.7 mph /  1.1 km/h 2.0 mph /  3.2 km/h 48 % 0.00 in /  0 mm
13:08 78.8 °F /  26 °C 58.0 °F /  14.4 °C 30.20 in /  1022.6 hPa NNE 1.4 mph /  2.3 km/h 5.0 mph /  8 km/h 49 % 0.00 in /  0 mm
13:13 78.8 °F /  26 °C 57.4 °F /  14.1 °C 30.21 in /  1022.9 hPa ENE 1.5 mph /  2.4 km/h 2.3 mph /  3.7 km/h 48 % 0.00 in /  0 mm
13:18 78.8 °F /  26 °C 56.9 °F /  13.8 °C 30.20 in /  1022.6 hPa NNE 1.2 mph /  1.9 km/h 3.5 mph /  5.6 km/h 47 % 0.00 in /  0 mm
13:23 78.7 °F /  25.9 °C 56.2 °F /  13.4 °C 30.20 in /  1022.6 hPa NE 1.3 mph /  2.1 km/h 4.0 mph /  6.4 km/h 46 % 0.00 in /  0 mm
13:28 78.6 °F /  25.9 °C 56.1 °F /  13.4 °C 30.20 in /  1022.6 hPa NNE 0.4 mph /  0.6 km/h 3.5 mph /  5.6 km/h 46 % 0.00 in /  0 mm
13:33 78.8 °F /  26 °C 55.7 °F /  13.2 °C 30.20 in /  1022.6 hPa ENE 0.2 mph /  0.3 km/h 3.5 mph /  5.6 km/h 45 % 0.00 in /  0 mm
13:38 78.8 °F /  26 °C 55.7 °F /  13.2 °C 30.20 in /  1022.6 hPa NE 0.4 mph /  0.6 km/h 1.2 mph /  1.9 km/h 45 % 0.00 in /  0 mm
13:43 78.9 °F /  26.1 °C 54.5 °F /  12.5 °C 30.20 in /  1022.6 hPa NE 0.3 mph /  0.5 km/h 2.3 mph /  3.7 km/h 43 % 0.00 in /  0 mm
13:48 79.0 °F /  26.1 °C 55.2 °F /  12.9 °C 30.20 in /  1022.6 hPa NE 2.2 mph /  3.5 km/h 3.5 mph /  5.6 km/h 44 % 0.00 in /  0 mm
13:54 79.1 °F /  26.2 °C 57.1 °F /  13.9 °C 30.20 in /  1022.6 hPa NE 1.4 mph /  2.3 km/h 7.0 mph /  11.3 km/h 47 % 0.00 in /  0 mm
13:59 79.0 °F /  26.1 °C 56.5 °F /  13.6 °C 30.20 in /  1022.6 hPa North 0.9 mph /  1.4 km/h 2.3 mph /  3.7 km/h 46 % 0.00 in /  0 mm
14:04 79.1 °F /  26.2 °C 55.3 °F /  12.9 °C 30.20 in /  1022.6 hPa NE 0.9 mph /  1.4 km/h 2.3 mph /  3.7 km/h 44 % 0.00 in /  0 mm
14:09 79.2 °F /  26.2 °C 56.6 °F /  13.7 °C 30.20 in /  1022.6 hPa Calm   3.5 mph /  5.6 km/h 46 % 0.00 in /  0 mm
14:14 79.4 °F /  26.3 °C 56.8 °F /  13.8 °C 30.20 in /  1022.6 hPa NE 0.4 mph /  0.6 km/h 2.3 mph /  3.7 km/h 46 % 0.00 in /  0 mm
14:19 79.5 °F /  26.4 °C 55.0 °F /  12.8 °C 30.19 in /  1022.2 hPa SE 0.9 mph /  1.4 km/h 2.3 mph /  3.7 km/h 43 % 0.00 in /  0 mm
14:24 79.7 °F /  26.5 °C 55.2 °F /  12.9 °C 30.19 in /  1022.2 hPa SE 0.2 mph /  0.3 km/h 2.3 mph /  3.7 km/h 43 % 0.00 in /  0 mm
14:29 79.7 °F /  26.5 °C 54.6 °F /  12.6 °C 30.19 in /  1022.2 hPa Calm   1.2 mph /  1.9 km/h 42 % 0.00 in /  0 mm
14:34 79.8 °F /  26.6 °C 54.7 °F /  12.6 °C 30.19 in /  1022.2 hPa NNE 0.1 mph /  0.2 km/h 2.3 mph /  3.7 km/h 42 % 0.00 in /  0 mm
14:39 80.0 °F /  26.7 °C 55.5 °F /  13.1 °C 30.18 in /  1021.9 hPa NNE 0.1 mph /  0.2 km/h 1.2 mph /  1.9 km/h 43 % 0.00 in /  0 mm
14:44 80.1 °F /  26.7 °C 54.9 °F /  12.7 °C 30.19 in /  1022.2 hPa NNE 0.7 mph /  1.1 km/h 3.5 mph /  5.6 km/h 42 % 0.00 in /  0 mm
14:49 80.3 °F /  26.8 °C 54.5 °F /  12.5 °C 30.18 in /  1021.9 hPa North 1.3 mph /  2.1 km/h 3.5 mph /  5.6 km/h 41 % 0.00 in /  0 mm
14:54 80.4 °F /  26.9 °C 55.2 °F /  12.9 °C 30.18 in /  1021.9 hPa North 1.7 mph /  2.7 km/h 3.5 mph /  5.6 km/h 42 % 0.00 in /  0 mm
14:59 80.5 °F /  26.9 °C 54.0 °F /  12.2 °C 30.18 in /  1021.9 hPa NNW 0.4 mph /  0.6 km/h 2.3 mph /  3.7 km/h 40 % 0.00 in /  0 mm
15:04 80.4 °F /  26.9 °C 53.9 °F /  12.2 °C 30.18 in /  1021.9 hPa Calm     40 % 0.00 in /  0 mm
15:09 80.3 °F /  26.8 °C 55.1 °F /  12.8 °C 30.18 in /  1021.9 hPa North 1.7 mph /  2.7 km/h 3.0 mph /  4.8 km/h 42 % 0.00 in /  0 mm
15:14 80.3 °F /  26.8 °C 53.8 °F /  12.1 °C 30.18 in /  1021.9 hPa NNE 0.4 mph /  0.6 km/h 2.3 mph /  3.7 km/h 40 % 0.00 in /  0 mm
15:19 80.2 °F /  26.8 °C 54.4 °F /  12.4 °C 30.18 in /  1021.9 hPa NE 2.8 mph /  4.5 km/h 3.5 mph /  5.6 km/h 41 % 0.00 in /  0 mm
15:24 79.8 °F /  26.6 °C 55.9 °F /  13.3 °C 30.18 in /  1021.9 hPa NE 0.2 mph /  0.3 km/h 2.3 mph /  3.7 km/h 44 % 0.00 in /  0 mm
15:29 79.7 °F /  26.5 °C 55.2 °F /  12.9 °C 30.18 in /  1021.9 hPa NW 1.5 mph /  2.4 km/h 3.5 mph /  5.6 km/h 43 % 0.00 in /  0 mm
15:35 79.7 °F /  26.5 °C 54.6 °F /  12.6 °C 30.17 in /  1021.6 hPa WNW 1.0 mph /  1.6 km/h 4.0 mph /  6.4 km/h 42 % 0.00 in /  0 mm
15:39 79.7 °F /  26.5 °C 53.9 °F /  12.2 °C 30.17 in /  1021.6 hPa Calm   1.2 mph /  1.9 km/h 41 % 0.00 in /  0 mm
15:44 79.8 °F /  26.6 °C 55.3 °F /  12.9 °C 30.17 in /  1021.6 hPa NNE 1.4 mph /  2.3 km/h 3.5 mph /  5.6 km/h 43 % 0.00 in /  0 mm
15:49 79.6 °F /  26.4 °C 55.8 °F /  13.2 °C 30.17 in /  1021.6 hPa NW 1.1 mph /  1.8 km/h 1.2 mph /  1.9 km/h 44 % 0.00 in /  0 mm
15:55 79.6 °F /  26.4 °C 54.5 °F /  12.5 °C 30.17 in /  1021.6 hPa Calm     42 % 0.00 in /  0 mm
15:58 79.5 °F /  26.4 °C 55.7 °F /  13.2 °C 30.17 in /  1021.6 hPa WNW 0.3 mph /  0.5 km/h 2.3 mph /  3.7 km/h 44 % 0.00 in /  0 mm
16:03 79.4 °F /  26.3 °C 55.6 °F /  13.1 °C 30.17 in /  1021.6 hPa WNW 0.6 mph /  1 km/h 2.0 mph /  3.2 km/h 44 % 0.00 in /  0 mm
16:08 79.4 °F /  26.3 °C 56.8 °F /  13.8 °C 30.17 in /  1021.6 hPa NW 0.1 mph /  0.2 km/h 1.2 mph /  1.9 km/h 46 % 0.00 in /  0 mm
16:13 79.5 °F /  26.4 °C 55.0 °F /  12.8 °C 30.17 in /  1021.6 hPa West 1.1 mph /  1.8 km/h 2.3 mph /  3.7 km/h 43 % 0.00 in /  0 mm
16:18 79.7 °F /  26.5 °C 53.9 °F /  12.2 °C 30.17 in /  1021.6 hPa West 1.7 mph /  2.7 km/h 3.5 mph /  5.6 km/h 41 % 0.00 in /  0 mm
16:23 79.7 °F /  26.5 °C 54.6 °F /  12.6 °C 30.17 in /  1021.6 hPa WSW 1.6 mph /  2.6 km/h 3.5 mph /  5.6 km/h 42 % 0.00 in /  0 mm
16:28 79.6 °F /  26.4 °C 55.8 °F /  13.2 °C 30.17 in /  1021.6 hPa WSW 1.2 mph /  1.9 km/h 4.6 mph /  7.4 km/h 44 % 0.00 in /  0 mm
16:33 79.4 °F /  26.3 °C 53.0 °F /  11.7 °C 30.17 in /  1021.6 hPa SW 0.7 mph /  1.1 km/h 3.5 mph /  5.6 km/h 40 % 0.00 in /  0 mm
16:38 79.3 °F /  26.3 °C 54.9 °F /  12.7 °C 30.17 in /  1021.6 hPa SW 1.1 mph /  1.8 km/h 1.2 mph /  1.9 km/h 43 % 0.00 in /  0 mm
16:43 79.1 °F /  26.2 °C 54.0 °F /  12.2 °C 30.17 in /  1021.6 hPa SW 1.0 mph /  1.6 km/h 2.3 mph /  3.7 km/h 42 % 0.00 in /  0 mm
16:48 78.9 °F /  26.1 °C 53.2 °F /  11.8 °C 30.17 in /  1021.6 hPa WSW 0.7 mph /  1.1 km/h 3.5 mph /  5.6 km/h 41 % 0.00 in /  0 mm
16:54 78.7 °F /  25.9 °C 53.7 °F /  12.1 °C 30.17 in /  1021.6 hPa West 1.2 mph /  1.9 km/h 3.5 mph /  5.6 km/h 42 % 0.00 in /  0 mm
16:59 78.6 °F /  25.9 °C 53.6 °F /  12 °C 30.16 in /  1021.2 hPa West 0.5 mph /  0.8 km/h 3.5 mph /  5.6 km/h 42 % 0.00 in /  0 mm
17:04 78.5 °F /  25.8 °C 54.1 °F /  12.3 °C 30.16 in /  1021.2 hPa Calm     43 % 0.00 in /  0 mm
17:09 78.4 °F /  25.8 °C 52.1 °F /  11.2 °C 30.17 in /  1021.6 hPa West 1.6 mph /  2.6 km/h 3.5 mph /  5.6 km/h 40 % 0.00 in /  0 mm
17:14 78.4 °F /  25.8 °C 51.4 °F /  10.8 °C 30.17 in /  1021.6 hPa Calm   1.2 mph /  1.9 km/h 39 % 0.00 in /  0 mm
17:19 78.3 °F /  25.7 °C 54.6 °F /  12.6 °C 30.17 in /  1021.6 hPa West 0.3 mph /  0.5 km/h 1.2 mph /  1.9 km/h 44 % 0.00 in /  0 mm
17:24 78.0 °F /  25.6 °C 51.7 °F /  10.9 °C 30.17 in /  1021.6 hPa Calm     40 % 0.00 in /  0 mm
17:29 77.9 °F /  25.5 °C 50.9 °F /  10.5 °C 30.17 in /  1021.6 hPa Calm     39 % 0.00 in /  0 mm
17:34 77.7 °F /  25.4 °C 52.8 °F /  11.6 °C 30.17 in /  1021.6 hPa West 1.0 mph /  1.6 km/h 3.5 mph /  5.6 km/h 42 % 0.00 in /  0 mm
17:39 77.6 °F /  25.3 °C 54.6 °F /  12.6 °C 30.17 in /  1021.6 hPa Calm   1.2 mph /  1.9 km/h 45 % 0.00 in /  0 mm
17:44 77.3 °F /  25.2 °C 52.4 °F /  11.3 °C 30.17 in /  1021.6 hPa Calm     42 % 0.00 in /  0 mm
17:49 77.2 °F /  25.1 °C 52.3 °F /  11.3 °C 30.17 in /  1021.6 hPa Calm   1.2 mph /  1.9 km/h 42 % 0.00 in /  0 mm
17:54 77.0 °F /  25 °C 52.1 °F /  11.2 °C 30.17 in /  1021.6 hPa Calm     42 % 0.00 in /  0 mm
17:59 76.8 °F /  24.9 °C 50.6 °F /  10.3 °C 30.17 in /  1021.6 hPa Calm     40 % 0.00 in /  0 mm
18:04 76.7 °F /  24.8 °C 51.9 °F /  11.1 °C 30.17 in /  1021.6 hPa West 0.5 mph /  0.8 km/h 1.2 mph /  1.9 km/h 42 % 0.00 in /  0 mm
18:09 76.4 °F /  24.7 °C 51.6 °F /  10.9 °C 30.17 in /  1021.6 hPa Calm   1.2 mph /  1.9 km/h 42 % 0.00 in /  0 mm
18:15 76.0 °F /  24.4 °C 50.6 °F /  10.3 °C 30.17 in /  1021.6 hPa West 0.3 mph /  0.5 km/h 1.2 mph /  1.9 km/h 41 % 0.00 in /  0 mm
18:20 75.8 °F /  24.3 °C 51.7 °F /  10.9 °C 30.17 in /  1021.6 hPa Calm     43 % 0.00 in /  0 mm
18:25 75.5 °F /  24.2 °C 51.4 °F /  10.8 °C 30.17 in /  1021.6 hPa Calm     43 % 0.00 in /  0 mm
18:30 75.2 °F /  24 °C 52.4 °F /  11.3 °C 30.17 in /  1021.6 hPa Calm     45 % 0.00 in /  0 mm
18:35 75.0 °F /  23.9 °C 52.2 °F /  11.2 °C 30.17 in /  1021.6 hPa Calm     45 % 0.00 in /  0 mm
18:40 74.7 °F /  23.7 °C 53.7 °F /  12.1 °C 30.17 in /  1021.6 hPa Calm     48 % 0.00 in /  0 mm
18:45 74.4 °F /  23.6 °C 54.5 °F /  12.5 °C 30.17 in /  1021.6 hPa Calm     50 % 0.00 in /  0 mm
18:50 74.2 °F /  23.4 °C 56.5 °F /  13.6 °C 30.17 in /  1021.6 hPa Calm     54 % 0.00 in /  0 mm
18:55 73.9 °F /  23.3 °C 57.2 °F /  14 °C 30.17 in /  1021.6 hPa Calm     56 % 0.00 in /  0 mm
19:00 73.5 °F /  23.1 °C 56.3 °F /  13.5 °C 30.17 in /  1021.6 hPa Calm     55 % 0.00 in /  0 mm
19:03 73.3 °F /  22.9 °C 56.7 °F /  13.7 °C 30.17 in /  1021.6 hPa Calm     56 % 0.00 in /  0 mm
19:08 72.9 °F /  22.7 °C 56.8 °F /  13.8 °C 30.17 in /  1021.6 hPa Calm     57 % 0.00 in /  0 mm
19:13 72.4 °F /  22.4 °C 56.8 °F /  13.8 °C 30.17 in /  1021.6 hPa Calm     58 % 0.00 in /  0 mm
19:18 72.0 °F /  22.2 °C 56.9 °F /  13.8 °C 30.17 in /  1021.6 hPa Calm     59 % 0.00 in /  0 mm
19:24 71.6 °F /  22 °C 57.4 °F /  14.1 °C 30.17 in /  1021.6 hPa Calm     61 % 0.00 in /  0 mm
19:29 71.1 °F /  21.7 °C 57.0 °F /  13.9 °C 30.17 in /  1021.6 hPa Calm     61 % 0.00 in /  0 mm
19:34 70.7 °F /  21.5 °C 57.0 °F /  13.9 °C 30.17 in /  1021.6 hPa Calm     62 % 0.00 in /  0 mm
19:39 70.3 °F /  21.3 °C 56.2 °F /  13.4 °C 30.17 in /  1021.6 hPa Calm     61 % 0.00 in /  0 mm
19:44 69.8 °F /  21 °C 56.2 °F /  13.4 °C 30.17 in /  1021.6 hPa Calm     62 % 0.00 in /  0 mm
19:49 69.2 °F /  20.7 °C 56.1 °F /  13.4 °C 30.18 in /  1021.9 hPa Calm     63 % 0.00 in /  0 mm
19:54 68.6 °F /  20.3 °C 56.4 °F /  13.6 °C 30.18 in /  1021.9 hPa Calm     65 % 0.00 in /  0 mm
19:59 68.2 °F /  20.1 °C 56.0 °F /  13.3 °C 30.18 in /  1021.9 hPa Calm     65 % 0.00 in /  0 mm
20:04 67.9 °F /  19.9 °C 56.1 °F /  13.4 °C 30.18 in /  1021.9 hPa Calm     66 % 0.00 in /  0 mm
20:09 67.5 °F /  19.7 °C 56.2 °F /  13.4 °C 30.18 in /  1021.9 hPa Calm     67 % 0.00 in /  0 mm
20:14 67.2 °F /  19.6 °C 55.9 °F /  13.3 °C 30.18 in /  1021.9 hPa Calm     67 % 0.00 in /  0 mm
20:19 66.9 °F /  19.4 °C 56.0 °F /  13.3 °C 30.18 in /  1021.9 hPa Calm     68 % 0.00 in /  0 mm
20:24 66.6 °F /  19.2 °C 56.1 °F /  13.4 °C 30.19 in /  1022.2 hPa Calm     69 % 0.00 in /  0 mm
20:29 66.3 °F /  19.1 °C 55.8 °F /  13.2 °C 30.19 in /  1022.2 hPa Calm     69 % 0.00 in /  0 mm
20:34 66.0 °F /  18.9 °C 55.9 °F /  13.3 °C 30.19 in /  1022.2 hPa Calm     70 % 0.00 in /  0 mm
20:39 65.7 °F /  18.7 °C 56.4 °F /  13.6 °C 30.19 in /  1022.2 hPa Calm     72 % 0.00 in /  0 mm
20:44 65.4 °F /  18.6 °C 56.1 °F /  13.4 °C 30.19 in /  1022.2 hPa Calm     72 % 0.00 in /  0 mm
20:49 65.2 °F /  18.4 °C 55.9 °F /  13.3 °C 30.19 in /  1022.2 hPa Calm     72 % 0.00 in /  0 mm
20:54 65.0 °F /  18.3 °C 55.8 °F /  13.2 °C 30.19 in /  1022.2 hPa Calm     72 % 0.00 in /  0 mm
20:59 64.8 °F /  18.2 °C 55.6 °F /  13.1 °C 30.19 in /  1022.2 hPa Calm     72 % 0.00 in /  0 mm
21:04 64.6 °F /  18.1 °C 56.1 °F /  13.4 °C 30.20 in /  1022.6 hPa West 1.1 mph /  1.8 km/h 2.3 mph /  3.7 km/h 74 % 0.00 in /  0 mm
21:09 64.4 °F /  18 °C 55.9 °F /  13.3 °C 30.20 in /  1022.6 hPa Calm     74 % 0.00 in /  0 mm
21:14 64.2 °F /  17.9 °C 55.7 °F /  13.2 °C 30.20 in /  1022.6 hPa West 0.2 mph /  0.3 km/h 1.2 mph /  1.9 km/h 74 % 0.00 in /  0 mm
21:19 64.1 °F /  17.8 °C 55.6 °F /  13.1 °C 30.20 in /  1022.6 hPa Calm     74 % 0.00 in /  0 mm
21:24 63.9 °F /  17.7 °C 55.4 °F /  13 °C 30.20 in /  1022.6 hPa West 0.1 mph /  0.2 km/h   74 % 0.00 in /  0 mm
21:29 63.7 °F /  17.6 °C 56.0 °F /  13.3 °C 30.20 in /  1022.6 hPa Calm     76 % 0.00 in /  0 mm
21:34 63.5 °F /  17.5 °C 56.2 °F /  13.4 °C 30.20 in /  1022.6 hPa Calm     77 % 0.00 in /  0 mm
21:39 63.3 °F /  17.4 °C 56.0 °F /  13.3 °C 30.20 in /  1022.6 hPa Calm     77 % 0.00 in /  0 mm
21:44 63.2 °F /  17.3 °C 55.9 °F /  13.3 °C 30.20 in /  1022.6 hPa Calm     77 % 0.00 in /  0 mm
21:49 63.0 °F /  17.2 °C 56.0 °F /  13.3 °C 30.20 in /  1022.6 hPa Calm     78 % 0.00 in /  0 mm
21:54 62.8 °F /  17.1 °C 55.8 °F /  13.2 °C 30.20 in /  1022.6 hPa Calm     78 % 0.00 in /  0 mm
21:59 62.6 °F /  17 °C 55.6 °F /  13.1 °C 30.20 in /  1022.6 hPa Calm     78 % 0.00 in /  0 mm
22:04 62.4 °F /  16.9 °C 55.4 °F /  13 °C 30.20 in /  1022.6 hPa Calm     78 % 0.00 in /  0 mm
22:09 62.2 °F /  16.8 °C 55.6 °F /  13.1 °C 30.20 in /  1022.6 hPa Calm     79 % 0.00 in /  0 mm
22:15 62.0 °F /  16.7 °C 55.8 °F /  13.2 °C 30.20 in /  1022.6 hPa Calm     80 % 0.00 in /  0 mm
22:20 61.9 °F /  16.6 °C 55.7 °F /  13.2 °C 30.20 in /  1022.6 hPa Calm     80 % 0.00 in /  0 mm
22:25 61.7 °F /  16.5 °C 55.5 °F /  13.1 °C 30.20 in /  1022.6 hPa Calm     80 % 0.00 in /  0 mm
22:30 61.5 °F /  16.4 °C 55.6 °F /  13.1 °C 30.20 in /  1022.6 hPa Calm   1.0 mph /  1.6 km/h 81 % 0.00 in /  0 mm
22:35 61.3 °F /  16.3 °C 55.4 °F /  13 °C 30.20 in /  1022.6 hPa Calm   1.2 mph /  1.9 km/h 81 % 0.00 in /  0 mm
22:40 61.2 °F /  16.2 °C 55.7 °F /  13.2 °C 30.21 in /  1022.9 hPa West 0.4 mph /  0.6 km/h 2.3 mph /  3.7 km/h 82 % 0.00 in /  0 mm
22:45 61.0 °F /  16.1 °C 55.5 °F /  13.1 °C 30.21 in /  1022.9 hPa Calm     82 % 0.00 in /  0 mm
22:50 60.9 °F /  16.1 °C 55.4 °F /  13 °C 30.21 in /  1022.9 hPa Calm   1.2 mph /  1.9 km/h 82 % 0.00 in /  0 mm
22:55 60.7 °F /  15.9 °C 55.2 °F /  12.9 °C 30.21 in /  1022.9 hPa Calm   1.2 mph /  1.9 km/h 82 % 0.00 in /  0 mm
23:00 60.6 °F /  15.9 °C 55.1 °F /  12.8 °C 30.21 in /  1022.9 hPa Calm     82 % 0.00 in /  0 mm
23:05 60.5 °F /  15.8 °C 55.0 °F /  12.8 °C 30.21 in /  1022.9 hPa Calm   1.2 mph /  1.9 km/h 82 % 0.00 in /  0 mm
23:10 60.4 °F /  15.8 °C 54.9 °F /  12.7 °C 30.21 in /  1022.9 hPa Calm     82 % 0.00 in /  0 mm
23:15 60.3 °F /  15.7 °C 54.8 °F /  12.7 °C 30.21 in /  1022.9 hPa Calm     82 % 0.00 in /  0 mm
23:20 60.2 °F /  15.7 °C 54.7 °F /  12.6 °C 30.21 in /  1022.9 hPa Calm     82 % 0.00 in /  0 mm
23:25 60.1 °F /  15.6 °C 54.6 °F /  12.6 °C 30.21 in /  1022.9 hPa Calm     82 % 0.00 in /  0 mm
23:30 60.0 °F /  15.6 °C 54.5 °F /  12.5 °C 30.21 in /  1022.9 hPa Calm     82 % 0.00 in /  0 mm
23:35 59.9 °F /  15.5 °C 54.4 °F /  12.4 °C 30.21 in /  1022.9 hPa Calm     82 % 0.00 in /  0 mm
23:40 59.9 °F /  15.5 °C 54.7 °F /  12.6 °C 30.21 in /  1022.9 hPa Calm     83 % 0.00 in /  0 mm
23:45 59.7 °F /  15.4 °C 54.5 °F /  12.5 °C 30.21 in /  1022.9 hPa West 0.2 mph /  0.3 km/h 1.0 mph /  1.6 km/h 83 % 0.00 in /  0 mm
23:50 59.6 °F /  15.3 °C 54.8 °F /  12.7 °C 30.21 in /  1022.9 hPa Calm     84 % 0.00 in /  0 mm
23:55 59.5 °F /  15.3 °C 54.3 °F /  12.4 °C 30.21 in /  1022.9 hPa West 0.1 mph /  0.2 km/h   83 % 0.00 in /  0 mm
Crab Meadow Weather
Compliments of Weather Underground - 3 mb

Script developed by  Jim McMurry - jmcmurry@mwt.net Adapted for the template by  Wim van der Kuil - Leuven-Template.eu

Astronomy: It takes 16 million horsepower to break loose from the Earth's gravitational pull.